{"data":{"norad_id":39473,"epoch":"2026-09-20T00:31:02.392608Z","epoch_age_seconds":74969,"freshness":"FRESH","line1":"1 39473U 13072M   26263.02155547  .03280919  13712-4  12005-2 0  9997","line2":"2 39473 120.4369 176.7071 0007409 137.8604 222.3088 16.24044687134354","mean_motion":16.24044687,"eccentricity":0.0007409,"inclination_deg":120.4369,"raan_deg":176.7071,"arg_perigee_deg":137.8604,"mean_anomaly_deg":222.3088,"bstar":0.0012005,"rev_number":13435,"period_min":88.667510908214,"perigee_km":203.71283914873,"apogee_km":213.47305558474,"semimajor_km":6586.7299473667,"source":"CELESTRAK","updated_at":"2026-09-20T09:00:13.960671Z"}}